Wind_Speed
10 9 9 7 7 6 5 4 3 2 2 3 4 4 5 5 6 7 8 9 9 8 9 9 9 8 8 8 8 9 9 8 8 8 8 7 7 7 7 6 5 5 4 2
10 9 9 9 8 7 7 7 6 5 3 4 4 5 5 5 5 6 7 8 7 6 7 8 8 7 7 7 7 7 8 8 8 7 7 7 7 7 7 6 6 5 4 3
11 9 10 10 9 9 8 8 7 6 6 6 6 6 6 7 6 4 6 6 6 5 5 6 6 5 6 6 6 7 6 7 7 7 7 6 7 7 6 6 6 6 5 4
12 12 12 11 10 10 10 9 9 8 9 9 9 9 6 6 7 5 3 4 6 4 5 5 5 5 4 5 6 6 6 6 7 7 6 6 6 7 6 6 6 6 5 4
15 14 14 13 11 10 10 11 11 11 12 12 11 10 7 7 6 5 4 4 4 4 4 5 4 4 4 4 5 5 6 6 6 6 6 6 6 6 6 6 6 6 6 5
17 17 15 12 12 12 12 12 13 13 13 13 11 12 10 8 7 6 5 5 6 5 4 4 4 4 4 5 5 5 6 7 6 6 6 5 5 6 6 6 6 7 6 5
18 17 16 15 14 15 14 14 15 16 16 14 13 14 11 9 8 7 6 5 6 5 4 4 4 5 5 6 6 5 6 6 6 6 6 6 7 7 6 6 6 6 6 6
19 18 18 18 17 17 16 16 16 16 16 14 14 16 14 12 10 9 7 5 6 6 5 5 5 6 6 6 6 6 6 7 7 7 7 7 7 7 7 7 7 7 6 6
20 19 18 19 19 19 19 19 18 18 18 17 17 16 14 12 11 10 8 7 6 6 6 6 7 8 8 7 6 7 8 8 9 9 9 8 8 8 8 8 8 7 7 8
21 21 19 19 20 21 21 19 19 19 19 18 18 16 14 12 12 11 9 7 7 7 7 7 8 9 9 9 9 9 9 10 10 10 10 10 10 9 9 9 9 9 10 10
22 22 21 20 21 22 22 22 22 21 20 19 18 16 15 14 13 12 9 8 8 8 9 10 10 10 11 11 11 11 11 11 12 11 11 11 11 11 10 11 11 11 11 12
23 23 23 22 22 23 22 23 24 23 21 20 18 16 16 14 14 14 12 10 10 11 12 12 12 12 12 12 13 13 13 13 13 13 13 13 13 12 12 12 12 13 13 14
23 24 24 23 23 24 25 24 24 24 23 21 20 19 17 16 15 15 14 13 12 12 13 13 13 13 14 14 13 14 14 15 15 14 14 14 14 14 13 13 13 14 15 15
24 25 25 24 24 25 24 24 23 24 25 22 21 20 19 18 17 17 16 15 14 14 15 15 14 15 15 15 15 15 15 15 16 15 15 16 16 15 15 15 15 16 16 16
26 26 25 24 24 25 25 24 24 25 24 23 22 22 21 19 18 19 18 18 17 17 17 17 17 17 17 17 17 17 17 17 17 16 16 17 17 17 16 17 17 17 17 17
28 28 27 26 25 26 27 26 25 26 26 25 23 23 23 21 21 20 20 20 19 18 18 18 19 19 19 19 19 19 19 19 18 18 17 18 18 18 17 17 17 18 18 17
29 29 28 28 28 26 27 26 27 27 27 26 25 23 23 23 23 22 21 21 20 20 19 19 20 20 20 20 21 20 20 21 20 19 19 18 18 19 18 19 19 19 19 19
30 30 30 29 29 29 26 26 27 28 28 27 26 24 24 25 24 24 24 24 23 21 21 21 22 22 22 22 22 22 21 21 21 21 20 19 19 19 19 20 20 20 20 20
29 30 30 31 31 30 28 26 27 28 29 27 27 25 25 24 25 25 24 24 24 24 23 23 23 23 23 23 23 23 23 23 22 22 21 20 20 20 20 21 22 22 22 22
28 29 30 30 31 32 29 26 26 27 29 28 28 27 26 26 26 24 24 23 23 23 24 24 24 24 24 24 23 24 24 23 23 23 22 22 21 22 22 23 23 24 24 25
28 28 29 30 31 31 29 27 26 29 29 28 28 27 27 27 26 26 25 24 23 24 25 25 25 25 25 25 25 25 25 25 24 24 23 23 24 24 24 24 25 25 26 26
28 28 28 29 30 30 29 28 27 28 28 28 27 26 26 27 27 27 27 24 24 24 25 26 26 26 26 26 26 26 26 26 26 25 25 25 25 25 26 26 26 27 27 27
28 28 28 29 29 28 28 27 27 26 27 28 27 26 26 26 26 27 27 26 25 25 25 25 25 26 26 26 26 26 26 27 26 26 26 27 27 27 27 27 27 28 28 28
27 28 29 30 28 27 27 27 27 27 26 27 27 26 26 27 26 26 26 25 25 25 25 25 26 27 27 27 26 26 27 27 27 27 28 28 28 28 28 27 27 27 27 28
28 28 29 30 29 28 28 27 27 28 28 27 26 26 27 27 26 25 26 26 26 26 27 27 27 26 26 27 27 27 27 28 28 28 28 28 28 28 28 28 27 27 27 27
26 26 26 28 28 28 28 28 27 28 27 27 26 27 27 26 27 27 26 27 27 27 27 28 28 27 27 28 28 28 28 28 28 27 27 28 27 26 27 27 27 27 27 27
Wind_Direction
213 214 214 206 203 199 204 219 230 244 269 313 319 327 337 352 16 25 24 27 29 40 47 52 57 56 59 61 59 58 57 55 53 51 50 47 43 42 38 35 35 33 31 24
213 213 211 212 215 210 207 216 230 251 270 282 299 317 324 332 350 9 21 23 29 36 43 50 54 56 55 55 54 51 49 46 43 42 41 36 33 30 29 26 29 25 19 15
218 215 220 222 222 214 222 232 237 250 254 263 275 289 311 314 320 337 354 2 14 20 36 43 46 50 50 49 47 44 41 37 33 31 31 28 24 24 21 22 21 16 6 352
218 219 223 228 232 230 228 231 241 243 246 249 258 270 282 290 302 302 323 342 357 3 27 31 33 33 35 35 34 32 30 26 25 25 24 21 19 18 14 13 11 14 13 3
223 226 230 233 235 234 229 235 244 245 249 247 254 260 261 268 280 287 287 316 331 342 354 360 6 12 8 10 16 14 15 13 11 11 12 13 11 7 5 5 5 7 6 360
229 231 233 235 238 235 233 239 242 244 248 247 251 257 261 263 266 269 281 296 307 314 322 334 341 349 347 340 346 356 354 353 352 356 358 357 354 353 351 351 352 353 354 346
232 232 232 230 233 234 233 237 240 242 245 246 248 253 261 265 266 263 264 276 291 297 304 318 324 331 324 321 329 329 332 337 338 339 340 341 341 341 342 340 340 343 342 342
237 236 235 233 235 238 238 241 248 254 254 253 250 254 258 264 264 256 253 263 277 284 295 306 308 313 313 309 311 309 313 319 317 316 320 323 327 331 335 336 334 332 333 332
238 237 235 236 237 240 241 242 247 254 256 254 252 256 254 262 258 249 253 263 272 275 286 296 300 305 305 295 294 300 302 306 305 304 304 309 311 315 319 323 322 321 321 320
240 241 234 234 235 236 241 243 243 248 250 253 253 254 254 261 254 250 250 252 261 265 274 284 294 297 296 291 290 294 297 300 302 300 294 297 302 302 305 307 307 308 310 313
241 241 234 233 232 234 237 240 241 244 247 250 254 254 250 254 253 246 245 255 261 267 277 285 292 290 288 288 289 291 293 296 298 298 292 290 295 298 297 298 300 301 305 307
238 238 235 233 232 231 236 241 239 241 245 248 250 251 248 248 250 250 252 260 265 270 276 281 283 288 289 288 288 288 291 292 292 291 289 289 287 291 291 293 295 298 301 303
235 235 235 232 227 228 233 236 238 239 244 246 248 249 245 246 249 249 251 254 261 269 277 281 283 287 288 287 286 287 288 288 288 287 287 287 286 289 290 290 292 294 297 299
233 234 234 234 230 229 232 234 238 241 242 245 248 248 247 248 250 250 249 252 260 268 275 279 282 285 285 284 284 284 287 287 286 286 285 285 285 286 287 289 290 290 291 294
234 235 233 233 233 230 230 231 236 242 243 246 248 249 249 251 256 256 252 254 257 263 268 273 276 279 281 281 281 281 283 285 285 284 283 284 283 283 285 285 288 288 287 290
234 234 233 234 236 233 230 232 235 239 243 247 250 250 253 255 258 259 258 256 255 258 264 269 273 275 277 278 279 281 281 282 283 283 282 282 281 280 281 283 286 286 286 290
232 231 231 233 236 237 233 232 235 237 239 243 248 250 253 257 257 256 257 256 257 259 260 265 270 274 275 276 279 280 280 280 280 281 280 280 279 279 281 283 284 285 285 285
234 231 232 235 236 238 235 235 235 237 241 243 246 251 256 257 257 257 258 260 260 261 263 267 273 276 277 278 278 277 278 278 279 279 278 278 279 279 279 281 283 283 284 284
235 235 235 236 237 239 237 236 237 239 239 242 246 250 255 258 259 257 258 259 261 263 265 268 273 276 277 278 277 276 277 277 276 276 276 277 275 277 279 281 282 282 283 283
235 235 238 239 239 240 239 239 239 242 243 243 246 250 254 257 258 261 262 259 261 262 265 268 271 275 277 277 277 275 276 276 276 275 275 275 276 277 278 280 281 282 282 282
234 235 236 238 239 239 238 238 238 241 243 244 246 249 252 257 261 262 263 263 262 263 265 267 271 273 275 276 276 276 275 275 275 276 277 277 277 276 277 279 281 282 282 282
234 234 234 237 239 239 238 240 241 245 246 246 246 249 252 256 260 261 263 265 265 265 266 268 271 273 274 274 274 274 274 275 276 276 276 276 276 277 278 279 280 281 281 281
235 235 236 238 241 241 240 243 244 247 247 247 247 248 251 255 260 264 263 265 268 268 269 270 272 275 275 274 275 274 274 275 276 276 276 276 276 277 277 278 279 280 280 280
240 240 239 241 243 241 241 242 244 247 250 250 251 250 253 256 260 262 263 265 267 269 270 271 273 274 274 273 274 275 274 274 274 274 275 276 274 274 276 277 278 279 280 279
243 243 242 241 239 239 241 243 244 247 251 250 250 253 254 256 260 261 263 264 266 268 270 272 273 273 272 272 273 275 275 275 275 275 274 275 275 272 273 275 277 278 279 280
243 242 244 244 245 245 246 246 247 249 252 253 253 253 255 257 259 260 261 264 266 269 271 272 274 275 275 275 275 275 274 273 273 274 274 274 275 272 273 274 276 278 280 281
Height
5907 5909 5910 5911 5912 5912 5913 5914 5914 5915 5914 5914 5914 5914 5914 5913 5913 5912 5911 5911 5910 5909 5908 5907 5906 5906 5905 5904 5904 5903 5903 5902 5901 5900 5899 5898 5897 5896 5895 5894 5893 5892 5891 5891
5906 5907 5909 5909 5910 5911 5912 5912 5913 5914 5913 5914 5913 5913 5913 5912 5912 5912 5911 5911 5910 5909 5909 5908 5907 5907 5906 5905 5905 5904 5903 5902 5901 5901 5900 5899 5898 5897 5896 5894 5893 5892 5891 5890
5903 5906 5906 5907 5908 5909 5910 5911 5912 5912 5912 5912 5912 5912 5912 5911 5911 5911 5910 5910 5910 5909 5909 5908 5908 5907 5907 5906 5905 5905 5904 5903 5902 5901 5900 5899 5898 5897 5895 5894 5893 5892 5891 5890
5901 5902 5903 5904 5906 5907 5908 5909 5910 5910 5910 5910 5911 5910 5911 5910 5910 5910 5910 5910 5909 5909 5909 5908 5908 5907 5907 5906 5906 5905 5904 5903 5902 5901 5900 5899 5897 5896 5895 5894 5893 5892 5890 5889
5898 5899 5900 5901 5903 5904 5905 5906 5907 5907 5907 5908 5908 5908 5910 5909 5909 5909 5909 5909 5908 5908 5908 5908 5908 5907 5907 5906 5906 5905 5904 5903 5902 5901 5900 5898 5897 5896 5895 5894 5893 5891 5890 5889
5894 5896 5897 5899 5900 5901 5902 5903 5904 5904 5905 5905 5906 5905 5906 5906 5907 5907 5907 5907 5907 5907 5907 5907 5907 5906 5906 5906 5905 5905 5904 5903 5902 5900 5899 5898 5897 5895 5894 5893 5892 5891 5890 5888
5889 5891 5893 5895 5896 5897 5898 5900 5901 5901 5901 5902 5903 5902 5903 5903 5904 5904 5905 5905 5905 5905 5906 5906 5905 5905 5905 5905 5905 5904 5903 5902 5901 5900 5899 5897 5896 5895 5893 5892 5891 5890 5889 5887
5884 5887 5889 5890 5891 5893 5894 5896 5897 5898 5898 5899 5900 5899 5901 5901 5901 5901 5902 5903 5903 5903 5904 5904 5904 5904 5904 5904 5903 5903 5902 5901 5900 5898 5897 5896 5895 5894 5892 5891 5890 5889 5887 5886
5879 5883 5885 5886 5888 5889 5890 5891 5893 5894 5894 5895 5895 5896 5897 5897 5897 5898 5899 5900 5901 5901 5901 5901 5902 5902 5902 5902 5902 5901 5900 5899 5898 5896 5895 5894 5893 5892 5891 5890 5888 5887 5886 5885
5874 5877 5880 5882 5883 5884 5885 5887 5888 5889 5889 5890 5891 5891 5894 5893 5894 5895 5896 5896 5897 5898 5898 5898 5898 5899 5899 5899 5899 5898 5898 5897 5895 5893 5891 5891 5891 5890 5889 5888 5887 5885 5884 5883
5868 5871 5874 5875 5877 5878 5880 5881 5882 5884 5885 5886 5887 5890 5890 5889 5890 5891 5893 5893 5894 5895 5895 5895 5895 5895 5896 5896 5895 5895 5894 5894 5893 5891 5889 5889 5888 5887 5886 5885 5884 5882 5881 5880
5862 5864 5866 5869 5871 5873 5875 5875 5877 5880 5881 5882 5883 5887 5885 5885 5887 5888 5889 5890 5891 5892 5892 5892 5892 5892 5892 5892 5891 5891 5891 5890 5889 5888 5887 5886 5885 5884 5883 5882 5880 5879 5878 5877
5856 5858 5860 5863 5867 5868 5868 5870 5871 5874 5875 5876 5878 5882 5881 5882 5883 5884 5885 5886 5887 5887 5888 5888 5889 5888 5888 5888 5888 5887 5887 5886 5885 5884 5883 5882 5881 5880 5879 5878 5877 5876 5874 5873
5850 5851 5854 5856 5858 5861 5863 5865 5866 5868 5869 5871 5873 5875 5876 5877 5879 5880 5881 5882 5882 5883 5883 5884 5884 5884 5884 5884 5883 5883 5882 5882 5881 5880 5879 5878 5877 5876 5875 5874 5873 5871 5870 5869
5844 5846 5848 5850 5853 5855 5857 5859 5861 5862 5864 5866 5868 5870 5871 5872 5874 5876 5877 5878 5878 5878 5879 5879 5879 5879 5879 5878 5878 5878 5877 5877 5876 5875 5874 5873 5872 5871 5871 5870 5868 5867 5865 5864
5836 5839 5841 5844 5846 5848 5851 5853 5855 5857 5858 5860 5862 5864 5866 5867 5868 5870 5871 5871 5872 5873 5874 5874 5875 5874 5874 5873 5873 5872 5872 5871 5871 5870 5870 5869 5867 5866 5865 5865 5863 5862 5861 5859
5829 5832 5835 5837 5840 5842 5844 5847 5849 5851 5853 5855 5857 5859 5860 5862 5863 5864 5865 5867 5867 5868 5868 5868 5869 5869 5868 5867 5867 5867 5866 5866 5865 5865 5864 5863 5862 5861 5860 5859 5858 5857 5856 5855
5823 5825 5828 5831 5834 5835 5840 5840 5842 5844 5847 5849 5851 5853 5854 5856 5857 5858 5859 5860 5861 5862 5862 5862 5862 5862 5862 5861 5861 5861 5860 5860 5859 5859 5858 5857 5856 5856 5855 5854 5853 5852 5850 5849
5815 5818 5821 5824 5825 5828 5832 5834 5835 5837 5840 5842 5844 5846 5848 5849 5850 5851 5852 5853 5854 5855 5856 5856 5856 5856 5855 5855 5854 5854 5854 5854 5853 5852 5852 5851 5851 5850 5849 5848 5847 5846 5844 5843
5808 5811 5814 5816 5818 5820 5826 5828 5829 5832 5833 5836 5838 5839 5841 5842 5843 5845 5846 5846 5847 5848 5849 5849 5849 5849 5848 5848 5847 5847 5847 5847 5846 5846 5845 5845 5844 5844 5843 5842 5840 5839 5838 5836
5802 5804 5807 5809 5811 5814 5819 5821 5823 5825 5827 5830 5831 5832 5834 5835 5837 5839 5839 5839 5840 5841 5841 5841 5841 5841 5841 5841 5840 5840 5840 5840 5840 5839 5838 5838 5837 5837 5836 5835 5834 5832 5830 5829
5795 5797 5800 5802 5805 5810 5812 5814 5816 5818 5820 5822 5824 5825 5826 5828 5829 5830 5831 5832 5833 5833 5834 5833 5834 5834 5834 5833 5833 5833 5833 5833 5832 5831 5831 5830 5830 5829 5828 5827 5826 5824 5823 5821
5789 5791 5793 5796 5800 5802 5804 5807 5809 5811 5813 5815 5816 5818 5819 5820 5821 5823 5824 5825 5826 5826 5826 5826 5826 5826 5826 5826 5826 5825 5825 5824 5824 5823 5823 5822 5821 5821 5820 5819 5818 5816 5815 5813
5782 5785 5787 5788 5791 5794 5797 5799 5801 5803 5806 5807 5809 5811 5812 5814 5815 5816 5817 5817 5818 5818 5818 5818 5818 5818 5818 5817 5817 5817 5816 5816 5815 5815 5814 5813 5812 5812 5811 5810 5809 5808 5806 5805
5776 5778 5779 5781 5784 5786 5789 5791 5793 5796 5798 5800 5802 5804 5805 5807 5807 5808 5809 5810 5811 5811 5811 5810 5809 5809 5809 5808 5809 5808 5807 5807 5806 5806 5805 5804 5803 5802 5802 5802 5801 5800 5798 5796
5769 5771 5772 5774 5777 5780 5783 5785 5787 5789 5791 5793 5795 5797 5798 5799 5800 5801 5801 5802 5802 5803 5803 5802 5801 5800 5800 5800 5800 5799 5798 5798 5797 5797 5796 5796 5794 5793 5794 5793 5793 5791 5790 5788